Back to catalog

THORAD AGENA D DEB

AliveSSO
NORAD 4992·DEBRIS·🇺🇸 United States

Launched Apr 8, 1970 from Vandenberg Space Force Base

Loading…

Next Passes

TLE

Source: Space-Track
1  4992U 70025HN  26221.83152176  .00000078  00000-0  16580-3 0  9992
2  4992 100.1044  75.0901 0014552 220.5401 154.3201 13.61161889790498

Track THORAD AGENA D DEB in real time with AllMySat

Download on the App Store